Regional Weather Roundup
Issued by NWS San Angelo, TX

Home | Current Version | Previous Version | Text Only | Print | Product List | Glossary On
Versions: 1 2 3 4 5 6 7 8 9 10 11 12 13 14 15 16 17 18 19 20 21 22 23 24 25 26 27 28 29 30 31 32 33 34 35 36 37 38 39 40 41 42 43 44 45 46 47 48 49 50
000
ASUS44 KSJT 272110
RWRSJT
WEST CENTRAL TEXAS REGIONAL WEATHER ROUNDUP
NATIONAL WEATHER SERVICE SAN ANGELO TX
300 PM CST SAT DEC 27 2014

NOTE: "FAIR" INDICATES FEW OR NO CLOUDS BELOW 12,000 FEET WITH NO
SIGNIFICANT WEATHER AND/OR OBSTRUCTIONS TO VISIBILITY.

TXZ049-054-064>066-071>073-076>078-098-099-113-114-127-128-139-140-
154-155-168>170-272200
...LOCATIONS ACROSS WEST CENTRAL TEXAS...

CITY           SKY/WX    TMP DP  RH WIND       PRES   REMARKS
SAN ANGELO     CLOUDY    40  29  64 N15       30.24R WCI  32
ABILENE        CLOUDY    35  27  72 N16       30.26F WCI  25
DYESS AFB      PTSUNNY   35  27  72 N14       30.25F WCI  26
JUNCTION       CLOUDY    41  33  73 N14       30.20R WCI  33
SWEETWATER     CLOUDY    36  24  61 N14       30.27S WCI  27
BROWNWOOD      CLOUDY    36  30  80 N16G23    30.24F WCI  26
COLEMAN        CLOUDY    36  32  87 N21       30.23F WCI  24
SONORA         CLOUDY    41  32  70 N17G23    30.24S WCI  32
OZONA          CLOUDY    41  30  65 N18       30.23S WCI  32
BRADY          LGT RAIN  39  34  81 N16       30.20R WCI  30
$$

TEXAS PANHANDLE/OKLAHOMA PANHANDLE

CITY           SKY/WX    TMP DP  RH WIND       PRES   REMARKS
AMARILLO       SUNNY     34  12  40 NW9       30.24F WCI  27
BORGER         SUNNY     35  12  38 VRB5      30.25F WCI  31
CANADIAN       SUNNY     37  16  42 NW9       30.26F WCI  30
DALHART        SUNNY     34  14  43 VRB3      30.22F
DUMAS          CLEAR     31  16  52 NW3       30.22F
GUYMON         NOT AVBL
HEREFORD       CLEAR     36  16  44 N9        30.24S WCI  29
PAMPA          CLEAR     34  12  41 N8        30.24F WCI  27
PERRYTON       SUNNY     34  14  44 NW9       30.24F WCI  27
$$

SOUTHERN PANHANDLE/SOUTH PLAINS/ROLLING PLAINS

CITY           SKY/WX    TMP DP  RH WIND       PRES   REMARKS
LUBBOCK        PTSUNNY   34  23  64 N10       30.23F WCI  26
SNYDER         PTSUNNY   35  24  65 N13G22    30.26S WCI  26
CHILDRESS      SUNNY     39  17  41 N10       30.27F WCI  32
SEMINOLE       MOCLDY    36  25  66 NE9       30.26S WCI  29
$$

PERMIAN BASIN

CITY           SKY/WX    TMP DP  RH WIND       PRES   REMARKS
MIDLAND        CLOUDY    35  29  78 N17       30.24S WCI  25
ODESSA         CLOUDY    34  29  82 N16       30.25S WCI  24
WINK           CLOUDY    38  31  76 NE13      30.24S WCI  30
$$

FAR WEST/SOUTHWEST MOUNTAINS/TRANS PECOS

CITY           SKY/WX    TMP DP  RH WIND       PRES   REMARKS
ALPINE         CLOUDY    36  32  85 NE10      30.23F WCI  28
DRYDEN           N/A     51  33  50 N16G24    30.16S
EL PASO        PTSUNNY   43  32  65 NW10      30.16F WCI  37
FORT STOCKTON  CLOUDY    41  34  76 NE13      30.22S WCI  34
GUADALUPE PASS NOT AVBL
MARFA          CLOUDY    37  30  75 NE16      30.16R WCI  28
PECOS          CLOUDY    38  36  89 N10       30.25F WCI  32
$$

DALLAS/FORT WORTH METROPLEX

CITY           SKY/WX    TMP DP  RH WIND       PRES   REMARKS
DFW AIRPORT    CLOUDY    39  32  76 NW20      30.21R WCI  29
FTW MEACHAM    CLOUDY    39  32  76 NW16G26   30.23R WCI  30
DAL-EXECUTIVE  LGT RAIN  41  34  76 N20       30.19R WCI  32
GRAND PRAIRIE  PTSUNNY   39  36  87 NW8G17    30.23R WCI  34
ADDISON        NOT AVBL
MESQUITE       CLOUDY    39  36  87 NW15      30.20R WCI  31
LANCASTER      DRIZZLE   40  35  81 NW14      30.21R WCI  33
$$

NORTH CENTRAL TEXAS

CITY           SKY/WX    TMP DP  RH WIND       PRES   REMARKS
SHRMAN/DENISON CLOUDY    36  35  94 N14G20    30.23R WCI  27
GAINESVILLE    CLOUDY    34  31  86 NW18      30.27R WCI  23
BRIDGEPORT     CLOUDY    35  33  92 NW12G18   30.29R WCI  26
DENTON         CLOUDY    37  31  78 NW16G22   30.24R WCI  28
WAXAHACHIE     LGT RAIN  39  37  93 NW12G24   30.21R WCI  32
GRANBURY       CLOUDY    39  32  77 NW16G24   30.26R WCI  30
$$

WESTERN NORTH TEXAS

CITY           SKY/WX    TMP DP  RH WIND       PRES   REMARKS
WICHITA FALLS  CLOUDY    34  25  69 N10       30.29S WCI  26
VERNON         MOCLDY    38  20  47 N12       30.29F WCI  31
BRECKENRIDGE   CLOUDY    35  29  79 N12G21    30.29S WCI  27
COMANCHE       CLOUDY    36  32  88 N16G25    30.24F WCI  26
$$

CENTRAL AND SOUTH CENTRAL TEXAS

CITY           SKY/WX    TMP DP  RH WIND       PRES   REMARKS
AUSTIN/BERGSTM CLOUDY    47  40  76 N17G28    30.13S
WACO           LGT RAIN  42  37  82 N20       30.18S WCI  33
HILLSBORO      RAIN      40  36  83 NW16      30.21R WCI  32
TEMPLE         CLOUDY    43  34  70 N18G24    30.17R WCI  34
KILLEEN-GRAY   LGT RAIN  41  37  87 N17G26    30.17R WCI  32
FORT HOOD      LGT RAIN  42  38  88 N15G22    30.17R VSB 1/2 WCI  34
GEORGETOWN     CLOUDY    45  37  76 N17G26    30.15  WCI  37
LAGO VISTA     CLOUDY    44  39  82 N12G18    30.15R WCI  38
SAN MARCOS     CLOUDY    46  39  76 N23G30    30.12S WCI  38
NEW BRAUNFELS  CLOUDY    48  45  89 N22G31    30.11R
RANDOLPH AFB   CLOUDY    48  40  75 N15G36    30.11R
SAN ANTONIO    CLOUDY    49  40  71 N17G29    30.11R
STINSON        CLOUDY    50  41  71 N14       30.10R
PLEASANTON     NOT AVBL
LA GRANGE      CLOUDY    49  43  80 N18G24    30.09R
GIDDINGS       CLOUDY    46  38  73 N18G24    30.14S WCI  39
$$

EAST TEXAS

CITY           SKY/WX    TMP DP  RH WIND       PRES   REMARKS
PARIS          CLOUDY    39  36  87 N14       30.18R WCI  31
CLARKSVILLE    NOT AVBL
TYLER          CLOUDY    44  39  82 N16G28    30.11R WCI  37
LONGVIEW       LGT RAIN  47  44  90 N15       30.08R FOG
PALESTINE      DRIZZLE   44  42  91 NW13G21   30.12R WCI  38
NACOGDOCHES      N/A    N/A N/A N/A MISG        N/A
$$

TEXAS HILL COUNTRY AND EDWARDS PLATEAU

CITY           SKY/WX    TMP DP  RH WIND       PRES   REMARKS
LLANO          CLOUDY    45  34  65 N14G20    30.24R WCI  38
HORSESHOE BAY  CLOUDY    45  37  73 N9G16     30.18R
KERRVILLE      CLOUDY    45  35  67 N17       30.15R WCI  37
FREDERICKSBRG  CLOUDY    43  33  67 N14G23    30.16R WCI  36
ROCKSPRINGS    CLOUDY    39  36  87 N17G24    30.16R WCI  30
HONDO          CLOUDY    51  37  58 N25G31    30.11R
UVALDE         CLOUDY    53  40  61 N10       30.11R
DEL RIO        CLOUDY    50  37  61 N18G26    30.17R
$$

SOUTHEAST TEXAS

CITY           SKY/WX    TMP DP  RH WIND       PRES   REMARKS
COLLEGE STN    CLOUDY    46  41  82 N15G24    30.12R WCI  40
CALDWELL       CLOUDY    45  39  81 N17G23    30.15S WCI  37
CROCKETT       CLOUDY    48  48 100 N8        30.12R
BRENHAM        CLOUDY    47  44  88 N20G25    30.11R
HUNTSVILLE     LGT RAIN  47  46  97 NW12G22   30.08R
CONROE         CLOUDY    49  47  93 N17G24    30.05R
HOUSTON BUSH   CLOUDY    53  51  93 NW15G23   30.02R
HOUSTON HOBBY  LGT RAIN  58  57  97 NW13      29.99R
PERLAND        LGT RAIN  60  58  92 NW15      30.01R
WHARTON        LGT RAIN  50  49  96 N18G25    30.05R
$$

THE UPPER TEXAS COAST

CITY           SKY/WX    TMP DP  RH WIND       PRES   REMARKS
ORANGE         CLOUDY    71  70  96 S10       29.99F FOG
PORT ARTHUR    PTSUNNY   75  70  84 S18       29.96F
GALVESTON      CLOUDY    70  69  97 S13       29.99R FOG
ANGLETON       RAIN      71  71 100 W12G21    29.97S FOG
BAY CITY         N/A     64  63  96 NW16G25   30.00R
$$

TEXAS COASTAL BEND, RIO GRANDE PLAINS DEEP SOUTH TEXAS

CITY           SKY/WX    TMP DP  RH WIND       PRES   REMARKS
VICTORIA       CLOUDY    51  47  86 N22G29    30.05R
BEEVILLE       CLOUDY    56  47  72 N22       30.02S
ROCKPORT       CLOUDY    73  69  87 VRB5      29.97R FOG
PORT ARANSAS   CLOUDY    69  67  94 S5        29.96S FOG
PORT LAVACA    LGT RAIN  52  50  93 N20       30.03R
CORPUS CHRISTI PTSUNNY   76  68  76 NE3       29.94F
KINGSVILLE NAS CLOUDY    78  65  63 N10       29.92F
COTULLA        CLOUDY   N/A N/A N/A N16G24    30.07R
LAREDO         NOT AVBL
BROWNSVILLE    CLOUDY    77  69  76 S18       29.93F
PORT ISABEL    LGT RAIN  77  69  76 S13       29.93S
HEBBRONVILLE   CLOUDY    67  58  72 NW13      30.00R
MCALLEN        CLOUDY    74  62  66 W6        29.95S
WESLACO        CLOUDY    73  63  69 NW6       29.93S
FALFURRIAS     MOCLDY    76  61  59 NW8       29.94R
EDINBURG       MOCLDY    78  62  58 SW3       29.95R
$$


USA.gov is the U.S. government's official web portal to all federal, state and local government web resources and services.